COSMOS 1275 DEB, 12659

Orbit data source: Space-Track

COSMOS 1275 DEB, 12659 is space debris in LEO originally from a launch on Thu, 04 Jun 1981 UTC launched from the Plesetsk Missile And Space Complex (PKMTR). Debris objects in space refer to the collection of defunct objects orbiting the Earth. Examples of debris include non-operational satellites, rocket bodies, and fragments generated from explosions, collisions, or faulty payload assembly.

Loading next visibility...
Identifier
12659, 1981-053P
Orbit
LEO
Country
Flag of CISCIS
Related business
Manufacturer
Unknown
Mission
Spacecraft
Bus & Motor
Unknown
Mass
Unknown
Launch date (UTC)
1981-06-04 (45 years ago)
Launch vehicle
Unknown
Launch site
Plesetsk Missile And Space Complex (PKMTR)
Object type
Payload
Rocket body
Debris
Shape & HBR
Unknown shape, 0.1 m
Radar Cross Section
Medium (>0.1 m² and <1 m²)

Expand to show TLE details & history
Last TLE update: 13 hours ago

TLE from 13 hours ago
0 COSMOS 1275 DEB
1 12659U 81053P   26034.33068818  .00001019  00000-0  80513-3 0  9993
2 12659  82.7439 326.4756 0062519 233.3106 249.1545 13.89775399235991
Epoch: 2026-02-03T07:56Z
TLE epoch observation values (Epoch: 2026-02-03T07:56:11.458Z)
Latitude
57.56627°
Longitude
-117.58288°
Altitude
955.603 km
Speed
7.371 km/s
True Right ascension
08h 59m 54s
True Declination
57° 24' 53"
Sunlit
Object was in full shadow at epoch
Visualization orbit readout
Latitude
Unknown
Longitude
Unknown
Altitude
Unknown
Speed
Unknown
Apparent Right ascension
Unknown
Apparent Declination
Unknown
Sunlit
N/A
Visualization observer readout
Local Sidereal Time
22:37:52
Azimuth
Unknown
Elevation
Unknown
Doppler factor
Unknown
Orbital elements
Apogee altitude
972.222 km
Perigee altitude
880.886 km
Semi-major axis
7,304.691 km
Eccentricity
0.00625
Inclination
82.7439°
RAAN
326.4756°
Arg. of periapsis
233.3106°
True anomaly
248.48685°
Mean anomaly
249.1545°
Eccentric anomaly
248.82049°
Mean motion
3.47649 °/min
Orbital period
103.55 mins
BSTAR
0.00080513
Loading maneuver chart data...
Computing Atmospheric mass density...

Documentation

Showing up to 5 results
|